Weather History for Pecos, TX

Change the Weather History Date:

Tuesday, December 3, 2013

  Actual Average Record
Temperature  
Mean Temperature 62 °F -  
Max Temperature 77 °F 63 °F 88 °F (1973)
Min Temperature 47 °F 30 °F 15 °F (1934)
Degree Days  
Heating Degree Days 3    
Growing Degree Days 12 (Base 50)    
Moisture  
Dew Point 29 °F    
Average Humidity 29    
Maximum Humidity 57    
Minimum Humidity 16    
Precipitation  
Precipitation 0.00 in - - ()
Sea Level Pressure  
Sea Level Pressure 29.73 in    
Wind  
Wind Speed 13 mph (SW)    
Max Wind Speed 32 mph    
Max Gust Speed 36 mph    
Visibility 10 miles    
Events      
Averages and records for this station are not official NWS values.
T = Trace of Precipitation, MM = Missing Value Source: NWS Daily Summary

Daily Weather History Graph

Daily Weather History Graph

Search for Another Location

Airport:

Trip Planner

Search our weather history database for the weather conditions in past years. The results will help you decide how hot, cold, wet, or windy it might be!

Date:

Astronomy

Dec. 03, 2013 Rise Set
Actual Time 7:37 AM CST 5:50 PM CST
Civil Twilight 7:10 AM CST 6:17 PM CST
Nautical Twilight 6:40 AM CST 6:47 PM CST
Astronomical Twilight 6:11 AM CST 7:16 PM CST
Moon 8:10 AM CST (12/3) 6:55 PM CST (12/3)
Length of Visible Light 11h 06m
Length of Day
10h 13m
New Moon, 1% of the Moon is Illuminated
Dec 3
New Moon
Dec 9
First Quarter
Dec 17
Full
Dec 25
Last Quarter
Jan 1
New

Hourly Weather History & Observations

Time (CST) Temp. Dew Point Humidity Pressure Visibility Wind Dir Wind Speed Gust Speed Precip Events Conditions
12:15 AM 59.9 °F 21.6 °F 23% 29.78 in 10.0 mi WSW 17.3 mph - N/A   Clear
12:35 AM 58.5 °F 21.7 °F 24% 29.77 in 10.0 mi WSW 15.0 mph - N/A   Clear
12:55 AM 57.6 °F 21.7 °F 25% 29.77 in 10.0 mi WSW 16.1 mph - N/A   Clear
1:15 AM 59.2 °F 21.2 °F 23% 29.77 in 10.0 mi WSW 17.3 mph - N/A   Clear
1:35 AM 60.1 °F 20.8 °F 22% 29.76 in 10.0 mi WSW 19.6 mph 26.5 mph N/A   Clear
1:55 AM 59.9 °F 20.8 °F 22% 29.76 in 10.0 mi WSW 18.4 mph - N/A   Clear
2:15 AM 60.1 °F 20.7 °F 22% 29.75 in 10.0 mi WSW 18.4 mph 24.2 mph N/A   Clear
2:35 AM 59.5 °F 20.8 °F 22% 29.75 in 10.0 mi WSW 13.8 mph - N/A   Clear
2:55 AM 59.0 °F 20.8 °F 23% 29.75 in 10.0 mi WSW 13.8 mph - N/A   Clear
3:15 AM 59.9 °F 20.3 °F 22% 29.75 in 10.0 mi WSW 16.1 mph - N/A   Clear
3:35 AM 59.5 °F 20.7 °F 22% 29.75 in 10.0 mi WSW 19.6 mph - N/A   Clear
3:55 AM 57.2 °F 20.7 °F 24% 29.76 in 10.0 mi WSW 11.5 mph - N/A   Clear
4:15 AM 54.9 °F 20.8 °F 27% 29.77 in 10.0 mi WSW 8.1 mph - N/A   Clear
4:35 AM 53.6 °F 20.8 °F 28% 29.76 in 10.0 mi WSW 6.9 mph - N/A   Clear
4:55 AM 51.8 °F 21.0 °F 30% 29.75 in 10.0 mi West 8.1 mph - N/A   Clear
5:15 AM 54.1 °F 21.0 °F 27% 29.75 in 10.0 mi WSW 5.8 mph - N/A   Clear
5:35 AM 55.2 °F 20.8 °F 26% 29.74 in 10.0 mi West 3.5 mph - N/A   Clear
5:55 AM 48.7 °F 20.3 °F 33% 29.73 in 10.0 mi ESE 3.5 mph - N/A   Clear
6:15 AM 47.7 °F 20.5 °F 34% 29.74 in 10.0 mi ENE 3.5 mph - N/A   Clear
6:35 AM 55.2 °F 21.2 °F 27% 29.74 in 10.0 mi Calm Calm - N/A   Clear
6:55 AM 53.6 °F 20.5 °F 27% 29.74 in 10.0 mi Calm Calm - N/A   Clear
7:15 AM 48.2 °F 21.9 °F 36% 29.75 in 10.0 mi Calm Calm - N/A   Clear
7:35 AM 49.3 °F 21.2 °F 33% 29.75 in 10.0 mi SE 4.6 mph - N/A   Clear
7:55 AM 48.2 °F 21.9 °F 36% 29.76 in 10.0 mi Calm Calm - N/A   Clear
8:15 AM 48.6 °F 23.9 °F 38% 29.76 in 10.0 mi SW 4.6 mph - N/A   Clear
8:35 AM 51.8 °F 26.8 °F 38% 29.77 in 7.0 mi West 4.6 mph - N/A   Clear
8:55 AM 58.8 °F 28.2 °F 31% 29.78 in 10.0 mi South 5.8 mph - N/A   Clear
9:15 AM 61.2 °F 29.8 °F 31% 29.78 in 10.0 mi WSW 6.9 mph - N/A   Clear
9:35 AM 66.0 °F 32.4 °F 29% 29.79 in 10.0 mi West 12.7 mph - N/A   Clear
9:55 AM 69.6 °F 33.8 °F 27% 29.79 in 10.0 mi WSW 13.8 mph 18.4 mph N/A   Clear
10:15 AM 71.6 °F 33.8 °F 25% 29.80 in 10.0 mi WSW 18.4 mph - N/A   Clear
10:30 AM 72.0 °F 33.4 °F 24% 29.80 in 10.0 mi WSW 17.3 mph 23.0 mph N/A   Clear
11:15 AM 73.9 °F 33.3 °F 23% 29.80 in 10.0 mi WSW 23.0 mph 28.8 mph N/A   Clear
11:35 AM 73.9 °F 32.9 °F 22% 29.80 in 10.0 mi WSW 21.9 mph 28.8 mph N/A   Clear
11:55 AM 74.5 °F 33.1 °F 22% 29.78 in 10.0 mi WSW 20.7 mph 26.5 mph N/A   Clear
12:15 PM 75.2 °F 33.8 °F 22% 29.77 in 10.0 mi WSW 16.1 mph 24.2 mph N/A   Clear
12:35 PM 75.2 °F 33.8 °F 22% 29.75 in 10.0 mi WSW 16.1 mph 19.6 mph N/A   Clear
12:55 PM 76.5 °F 34.3 °F 22% 29.73 in 10.0 mi SW 18.4 mph 24.2 mph N/A   Clear
1:15 PM 76.1 °F 34.5 °F 22% 29.72 in 10.0 mi SW 16.1 mph 23.0 mph N/A   Clear
1:35 PM 76.5 °F 32.5 °F 20% 29.71 in 10.0 mi WSW 19.6 mph 27.6 mph N/A   Clear
1:41 PM 77.0 °F 32.0 °F 19% 29.70 in 10.0 mi WSW 16.1 mph 27.6 mph N/A   Clear
1:55 PM 76.1 °F 31.8 °F 20% 29.69 in 10.0 mi WSW 24.2 mph 28.8 mph N/A   Clear
1:59 PM 77.0 °F 30.2 °F 18% 29.68 in 10.0 mi West 32.2 mph - N/A   Clear
2:15 PM 76.5 °F 28.6 °F 17% 29.68 in 10.0 mi West 27.6 mph 35.7 mph N/A   Clear
2:35 PM 75.9 °F 26.8 °F 16% 29.68 in 10.0 mi West 24.2 mph 33.4 mph N/A   Clear
2:55 PM 76.1 °F 27.7 °F 17% 29.68 in 10.0 mi West 17.3 mph 28.8 mph N/A   Clear
3:02 PM 77.0 °F 28.4 °F 17% 29.69 in 10.0 mi WSW 24.2 mph 28.8 mph N/A   Clear
3:15 PM 77.0 °F 28.2 °F 17% 29.68 in 10.0 mi West 24.2 mph 28.8 mph N/A   Clear
3:35 PM 76.3 °F 28.2 °F 17% 29.68 in 10.0 mi West 20.7 mph - N/A   Clear
3:55 PM 76.3 °F 27.5 °F 17% 29.68 in 10.0 mi WSW 17.3 mph - N/A   Clear
4:15 PM 75.2 °F 28.2 °F 18% 29.68 in 10.0 mi West 10.4 mph 15.0 mph N/A   Clear
4:35 PM 74.1 °F 27.5 °F 18% 29.68 in 10.0 mi West 6.9 mph - N/A   Clear
4:55 PM 72.5 °F 28.9 °F 20% 29.68 in 10.0 mi WSW 6.9 mph - N/A   Clear
5:15 PM 70.7 °F 30.2 °F 22% 29.68 in 10.0 mi WSW 9.2 mph - N/A   Clear
5:35 PM 70.7 °F 32.0 °F 24% 29.68 in 10.0 mi WSW 10.4 mph - N/A   Clear
5:55 PM 69.3 °F 32.2 °F 25% 29.69 in 10.0 mi WSW 9.2 mph - N/A   Clear
6:15 PM 66.0 °F 32.4 °F 29% 29.69 in 10.0 mi SW 9.2 mph - N/A   Clear
6:19 PM 66.2 °F 33.8 °F 30% 29.69 in 10.0 mi SW 10.4 mph - N/A   Clear
6:35 PM 66.0 °F 33.3 °F 30% 29.69 in 10.0 mi SW 10.4 mph - N/A   Clear
6:55 PM 64.8 °F 34.2 °F 32% 29.70 in 10.0 mi SW 8.1 mph - N/A   Clear
7:15 PM 63.1 °F 34.2 °F 34% 29.70 in 10.0 mi SW 6.9 mph - N/A   Clear
7:35 PM 62.6 °F 34.7 °F 35% 29.70 in 10.0 mi SW 6.9 mph - N/A   Clear
7:55 PM 60.6 °F 34.9 °F 38% 29.70 in 10.0 mi SW 8.1 mph - N/A   Clear
7:59 PM 60.8 °F 35.6 °F 39% 29.70 in 10.0 mi SW 9.2 mph - N/A   Clear
8:15 PM 58.3 °F 34.9 °F 41% 29.70 in 10.0 mi South 4.6 mph - N/A   Clear
8:35 PM 55.8 °F 34.9 °F 45% 29.70 in 10.0 mi South 6.9 mph - N/A   Clear
8:55 PM 58.6 °F 34.0 °F 40% 29.70 in 10.0 mi South 8.1 mph - N/A   Clear
9:15 PM 58.5 °F 34.7 °F 41% 29.70 in 10.0 mi SSW 8.1 mph - N/A   Clear
9:35 PM 56.8 °F 35.1 °F 44% 29.70 in 10.0 mi SSW 8.1 mph - N/A   Clear
9:39 PM 55.4 °F 35.6 °F 47% 29.70 in 10.0 mi SSW 6.9 mph - N/A   Clear
9:55 PM 54.9 °F 35.2 °F 48% 29.70 in 10.0 mi South 6.9 mph - N/A   Clear
10:15 PM 54.3 °F 36.0 °F 50% 29.70 in 10.0 mi South 6.9 mph - N/A   Clear
10:35 PM 54.7 °F 36.3 °F 50% 29.70 in 10.0 mi South 10.4 mph - N/A   Clear
10:55 PM 54.7 °F 36.5 °F 50% 29.70 in 10.0 mi SW 3.5 mph - N/A   Clear
11:15 PM 52.5 °F 36.3 °F 54% 29.70 in 10.0 mi Calm Calm - N/A   Clear
11:35 PM 53.1 °F 36.3 °F 53% 29.70 in 10.0 mi SSE 3.5 mph - N/A   Clear
11:55 PM 51.6 °F 36.7 °F 57% 29.70 in 10.0 mi South 6.9 mph - N/A   Clear